Regional Weather Roundup
Issued by NWS

Home | Current Version | Previous Version | Text Only | Print | Product List | Glossary On
Versions: 1 2 3 4 5 6 7 8 9 10 11 12 13 14 15 16 17 18 19 20 21 22 23 24 25 26 27 28 29 30 31 32 33 34 35 36 37 38 39 40 41 42 43 44 45 46 47 48 49 50
000
ASUS43 KFSD 242210
RWRSD

WEATHER ROUNDUP FOR SOUTH DAKOTA
NATIONAL WEATHER SERVICE SIOUX FALLS SD
500 PM CDT SUN MAY 24 2015

NOTE: "FAIR" INDICATES FEW OR NO CLOUDS BELOW 12,000 FEET WITH NO
SIGNIFICANT WEATHER AND/OR OBSTRUCTIONS TO VISIBILITY.


SDZ001>005-009-010-012>017-242300-
NORTHWEST AND NORTH CENTRAL SOUTH DAKOTA

CITY           SKY/WX    TMP DP  RH WIND       PRES   REMARKS
BUFFALO          N/A     56  53  90 NE12      29.87F
FAITH            N/A     56  53  90 E8        29.90F
MOBRIDGE       CLOUDY    66  54  65 E15       29.87F
$$

SDZ012>016-024>037-041>051-057-063-072>074-242300-
SOUTHWEST AND SOUTH CENTRAL SOUTH DAKOTA

CITY           SKY/WX    TMP DP  RH WIND       PRES   REMARKS
RAPID CTY ARPT CLOUDY    56  54  93 NE13      29.87F
PIERRE         CLOUDY    61  57  87 E14       29.84F
CUSTER         PTSUNNY   54  47  77 NE8       29.90F
ELLSWORTH AFB  CLOUDY    55  55 100 E14       29.87S
PHILIP         PTSUNNY   61  59  93 E16       29.84F
PINE RIDGE     PTSUNNY   64  55  72 N15       29.81F
SPEARFISH      LGT RAIN  50  50 100 E12       29.92F
WINNER         CLOUDY    61  57  87 E9        29.83F
$$

SDZ004>011-016>023-039-040-242300-
NORTHEAST SOUTH DAKOTA

CITY           SKY/WX    TMP DP  RH WIND       PRES   REMARKS
ABERDEEN       CLOUDY    65  54  67 E15       29.88F
WATERTOWN      LGT RAIN  59  57  93 E9        29.87F FOG
BROOKINGS      CLOUDY    61  57  88 E8        29.86S
SISSETON         N/A     61  58  90 SE16      29.90S
$$

SDZ017-020-022-023-036>040-048>070-242300-
SOUTHEAST SOUTH DAKOTA

CITY           SKY/WX    TMP DP  RH WIND       PRES   REMARKS
SIOUX FALLS    CLOUDY    62  60  93 NE8       29.81F
HURON          LGT RAIN  61  58  90 E6        29.84S
CHAMBERLAIN    CLOUDY    60  58  94 NE9       29.83F
MITCHELL       CLOUDY    64  61  90 E8        29.82F
YANKTON        CLOUDY    63  59  88 CALM      29.79F
$$

ABBREVIATIONS USED IN REMARKS
   TC - TEMPERATURE IN CELSIUS
  WCI - WIND CHILL INDEX
   HX - HEAT INDEX
  VSB - VISIBILITY




USA.gov is the U.S. government's official web portal to all federal, state and local government web resources and services.